SHIYAN 12 02 (SY-12 02) (50322 NORAD) Tracking and Keplerian Element Data

This shows tracking and keplerian element data for the satellite.

Feedback or suggestion? Click here.




ElementValue
Catalog50322
NameSHIYAN 12 02 (SY-12 02)
Epoch Orbit158
Epoch Day140.68304814
Epoch Year2022
RAAN245.6533
Inclination0.1991
Eccentricity6.87E-05
Argument of Perigee356.968
Mean Anonmoly333.9289
Mean Motion1.00328619
Decay Rate-2.65E-06
L11 50322U 21129B 22140.68304814 -.00000265 00000+0 00000+0 0 9992
L22 50322 0.1991 245.6533 0000687 356.9680 333.9289 1.00328619 1581

Live tracking and technical data element details for SHIYAN 12 02 (SY-12 02) (NORAD 50322). SHIYAN 12 02 (SY-12 02) can be tracked NOW for your location showing map with azimuth and elevation plus other details from your city location.

Track the satellite on the map from your city or location and see movement details for azimuth, elevation, latitude, longitude, range, height, and movement on the map or in text.







IsCatalogInMostPopularTable: catalog: 50322, numindb: 25
Update: records affected: 1



GetName: 50322 SHIYAN 12 02 (SY-12 02)

Hit Count: updated at: Sun, 22 May 2022 03:59:15 GMT